www.pogodaiklimat.ru

Погода и климат >> Архив погоды >> Китай >> Tianjin


АРХИВ ПОГОДЫ в Tianjin

Время (UTC), дата Ветер
(напр.,м/с)
 
Видим.   Явления Облачность Т
(С)
Тd
(С)
f
(%)
Тe
(С)
Тes
(С)
Комфортность P
(гПа)
Po
(гПа)
Тmin
(С)
Tmax
(С)
R
(мм)
R24
(мм)
S
(см)
18 12.11 Ю 2 3600 м дымка ?/? +5.1 +3.9 92 +2 +2 по сезону 1022.3 1022.0 +14.9
21 12.11 Ю 2 1300 м дымка ?/? +4.5 +3.8 95 +2 +2 по сезону 1022.0 1022.0
00 13.11 Ю 1 1300 м дымка ясно +5.1 +4.7 97 +4 +4 по сезону 1023.2 1023.0
03 13.11 Ю 2 4300 м дымка ясно +11.7 +6.4 70 +11 +16 тепло 1023.2 1023.0
06 13.11 Ю 2 6000 м мгла ясно +14.6 +5.4 54 +14 +19 тепло 1020.8 1021.0 +3.9
09 13.11 В 1 6000 м дымка ясно +11.9 +5.1 63 +12 +12 тепло 1021.0 1021.0
12 13.11 ЮВ 2 3900 м дымка ясно +8.9 +5.5 79 +7 +7 тепло 1022.3 1021.8
18 13.11 Ю 1 <100 м туман ?/? +4.6 +4.0 96 +3 +3 по сезону 1022.9 1022.4 +15.0
21 13.11 ЮВ 1 100 м туман н/о +3.8 +3.4 97 +2 +2 по сезону 1022.5 1023.0
00 14.11 С 2 100 м туман ?/? +2.9 +2.5 97 -0 -0 по сезону 1024.2 1024.0
03 14.11 СЗ 2 700 м туман н/о +4.9 +4.5 97 +2 +2 по сезону 1024.8 1025.0
06 14.11 С 1 3200 м дымка {туман} 8/8 2000 м
[]
+9.7 +6.6 81 +9 +10 по сезону 1022.4 1022.0 +2.7
09 14.11 Ю 1 2800 м дымка 4/4
[]
+8.6 +6.1 84 +8 +8 по сезону 1022.4 1022.0
12 14.11 ЮВ 1 2000 м дымка ясно +7.1 +6.0 93 +6 +6 по сезону 1023.4 1022.9
18 14.11 С 1 1700 м дымка ?/? +7.2 +6.1 93 +6 +6 тепло 1024.1 1023.6 +10.3
21 14.11 С 1 2200 м дымка ?/? +7.7 +6.5 92 +7 +7 тепло 1024.0 1024.0
00 15.11 СЗ 2 2200 м дымка 10/10
[]
+8.7 +7.0 89 +7 +7 тепло 1025.8 1026.0
03 15.11 С 4 8000 м слабый дождь 10/10
[]
+9.4 +2.7 63 +7 +7 по сезону 1026.3 1026.0
06 15.11 С 6 30 км слабый дождь 10/10
[]
+10.3 -0.5 47 +7 +7 по сезону 1025.8 1025.3 +6.4
09 15.11 В 4 7000 м {дождь} 10/10
[]
+7.6 +4.7 82 +4 +4 по сезону 1028.1 1028.0
12 15.11 В 2 8000 м {дождь} 10/10
[]
+6.8 +3.8 81 +5 +5 по сезону 1029.8 1030.0
18 15.11 С 4 30 км ?/? +4.4 -12.5 28 +1 +1 по сезону 1032.3 1032.0 +10.6
21 15.11 С 3 30 км ?/? +2.7 -13.6 29 -0 -0 по сезону 1032.9 1033.0
00 16.11 СВ 2 30 км ясно +3.4 -13.8 27 +2 +2 по сезону 1034.5 1035.0
03 16.11 С 3 30 км ясно +5.9 -16.0 19 +4 +8 по сезону 1033.5 1034.0
06 16.11 С 3 30 км ясно +7.5 -14.6 19 +6 +9 по сезону 1029.9 1030.0 +2.4
09 16.11 ЮЗ 1 30 км 3/3
[]
+5.8 -13.2 24 +6 +6 по сезону 1029.3 1029.0
12 16.11 В 1 26 км ясно +2.6 -9.3 41 +2 +2 по сезону 1029.6 1030.0
18 16.11 Ю 1 19 км ?/? +0.4 -6.5 60 -1 -1 по сезону 1028.1 1028.0 +8.2
21 16.11 ЮВ 1 22 км н/о +1.7 -7.6 50 +1 +1 по сезону 1027.0 1027.0
00 17.11 Ю 1 22 км 8/8
[]
+2.3 -6.0 54 +1 +1 по сезону 1027.5 1028.0
03 17.11 ЮЗ 3 27 км ясно +8.5 -4.3 40 +7 +11 тепло 1026.4 1026.0
06 17.11 Ю 5 22 км 5/5
[]
+11.0 -2.4 39 +9 +10 по сезону 1023.2 1023.0 -0.3
09 17.11 ЮЗ 3 14 км 3/3
[]
+9.1 -0.5 51 +7 +7 по сезону 1022.5 1023.0
12 17.11 Ю 2 9000 м 3/3
[]
+4.5 +0.6 76 +2 +2 по сезону 1023.8 1024.0
18 17.11 н/о +11.6
21 17.11 ЮЗ 2 3800 м слабый снег н/о +2.1 +1.1 93 -1 -1 по сезону 1022.5 1023.0
00 18.11 Ю 1 200 м туман ?/? +2.1 +1.5 96 0 0 по сезону 1023.1 1023.0
03 18.11 Ю 2 4200 м в посл. час туман ясно +6.4 +2.8 78 +4 +9 по сезону 1023.4 1023.0
06 18.11 СВ 1 16 км {туман} 1/1
[]
+11.9 -6.5 27 +12 +17 тепло 1021.0 1021.0 +0.9
09 18.11 З 1 29 км ясно +9.6 -9.5 25 +10 +10 тепло 1021.3 1021.0
12 18.11 штиль 0 17 км ясно +5.1 -5.6 46 +5 +5 по сезону 1023.0 1023.0
18 18.11 штиль 0 8000 м ?/? +0.6 -3.1 76 -0 -0 по сезону 1024.2 1024.0 +12.4
21 18.11 ЮВ 1 8000 м дымка ?/? +0.8 -2.8 77 -1 -1 по сезону 1023.5 1024.0
00 19.11 ЮВ 3 6000 м дымка ясно +1.6 -1.5 80 -3 -2 по сезону 1023.7 1024.0
03 19.11 Ю 3 6000 м дымка ясно +8.6 +1.7 62 +6 +10 по сезону 1023.6 1024.0
06 19.11 Ю 5 10 км ясно +12.9 +0.6 43 +11 +13 тепло 1020.0 1020.0 -0.9
09 19.11 Ю 2 16 км ясно +9.8 -3.2 40 +9 +9 тепло 1019.2 1019.0
12 19.11 Ю 2 8000 м ясно +6.9 +1.2 67 +5 +5 по сезону 1020.3 1020.0

 

Местоположение метеостанции Tianjin (Китай): широта 39.10 долгота 117.16 высота над уровнем моря 5 м.

В архиве по умолчанию представлена погода в Tianjin за последнюю неделю. Архивные данные за месяц целиком и за предыдущие месяцы, начиная с января 2011 года, Вы можете получить, выбрав интересующий диапазон дат из раскрывающегося списка и нажав кнопку "Ввод!".


*Определитесь, кто Вы:
робот инопланетянин человек

Внимание! Время в таблицах - всемирное. Для получения местного времени необходимо прибавить поправку, которая в Tianjin равна 8 ч.

Смотрите также архив погоды в соседних городах и на ближайших метеорологических станциях:

Погода в Tangshan (Китай) (106 км)
Погода в Beijing (Китай) (119 км)
Погода в Potou (Китай) (125 км)
Погода в Baoding (Китай) (141 км)
Погода в Leting (Китай) (154 км)
Погода в Huimin (Китай) (181 км)
Погода в Huailai (Китай) (203 км)
Погода в Lingxian (Китай) (204 км)
Погода в Qinglong (Китай) (211 км)
Погода в Chengde (Китай) (220 км)

Пояснения к столбцам:

Ветер - указаны скорость ветра в м/с - средняя за 10 мин, порывы в срок и между сроками (в фигурных скобках) и направление, откуда дует ветер: С - северный, СВ - северо-восточный, В - восточный, ЮВ - юго-восточный, Ю - южный, ЮЗ - юго-западный, З - западный, СЗ - северо-западный.
Видимость - горизонтальная дальность видимости в метрах или километрах. При видимости от 1 до 10 км при отсутствии осадков обычно наблюдается дымка, при ухудшении видимости до 1 км и менее - туман. В сухую погоду видимость может ухудшаться дымом, пылью или мглою.
Явления - указаны атмосферные явления, наблюдавшиеся в срок или в последний час перед сроком; фигурными скобками обозначены явления, наблюдавшиеся между сроками (за 1-3 часа до срока); квадратными скобками обозначены град или гололедные отложения с указанием их диаметра в мм.
Облачность - указаны через наклонную черту общая и нижняя облачность в баллах и высота нижней границы облаков в метрах; квадратными скобками обозначены формы облаков: Ci - перистые, Cs - перисто-слоистые, Cc - перисто-кучевые, Ac - высококучевые, As - высокослоистые, Sc - слоисто-кучевые, Ns - слоисто-дождевые, Cu - кучевые, Cb - кучево-дождевые. Подробнее классификацию облаков см. в Атласе облаков (PDF).
T - Температура воздуха - температура, измеренная на высоте 2 м над землей.
Td - Температура точки росы - температура, при понижении до которой содержащийся в воздухе водяной пар достигнет насыщения.
f - Относительная влажность воздуха - влажноcть воздуха, измеренная на высоте 2 м над землей.
Te - Эффективная температура - температура, которую ощущает одетый по сезону человек в тени. Характеристика душности погоды. При расчете учитывается влияние влажности воздуха и скорости ветра на теплоощущения человека.
Tes - Эффективная температура на солнце - температура, которую ощущает человек, с поправкой на солнечный нагрев. Характеристика знойности погоды. Зависит от высоты солнца над горизонтом, облачности и скорости ветра. Ночью, в пасмурную погоду, а также при ветре 12 м/с и более поправка равна нулю.
P - Атмосферное давление - приведенное к уровню моря атмосферное давление.
Po - Атмосферное давление - измеренное на уровне метеостанции атмосферное давление.
Tmin - Минимальная температура - минимум температуры воздуха на высоте 2 м над землей.
Tmax - Максимальная температура - максимум температуры воздуха на высоте 2 м над землей.
R - Количество осадков - Количество выпавших осадков за период времени, мм. При наведении курсора мыши на число - период времени, за который выпало указанное количество осадков.
R24 - Количество осадков - Количество выпавших осадков за 24 часа, мм.
S - Снежный покров - Высота снежного покрова, см. При наведении курсора мыши на число - состояние снежного покрова и степень покрытия местности в баллах.